パロマー彗星

C/2020 T2 ( Palomar )

English version
Home page
Updated on September 18, 2021

---------------------------------------------------------------------

・ プロフィール

発見日 2020年10月7日
発見光度 19.3等
発見者 Dmitry A. Duev (Palomar, Zwicky Transient Facility's Twilight Survey)

・ 写真集

・ 軌道要素

Epoch 2021 July 5.0 TT = JDT 2459400.5
T 2021 July 11.14808 TT                                 Rudenko
q   2.0546818            (2000.0)            P               Q
z  +0.0032064      Peri.  150.38349     -0.53886966     +0.70303116
 +/-0.0000005      Node    83.04816     -0.83514240     -0.37374872
e   0.9934118      Incl.   27.87299     -0.11025728     -0.60502817
From 860 observations 2019 Dec. 11-2021 May 2, mean residual 0".5.

・ 星図

・ 光度変化

        m1 = 3.0 + 5 logΔ + 19.0 log r

---------------------------------------------------------------------

軌道要素はM.P.E.C. 2021-J28に掲載されたものです。
星図はステラナビゲータ Ver.10 (アストロアーツ) で作成したものです。
光度グラフはComet for Windowsで作成したものです。

---------------------------------------------------------------------

Copyright(C) Seiichi Yoshida (comet@aerith.net). All rights reserved.